Temperature
14 14 14 14 14 14 14 14 14 14 15 15 15 15 15 15 15 15 15 15 15 15 15 15 15 15 15 15 15 15 15 15 15 15 15 15 15 15 15 14 14 14 15
14 14 14 14 14 14 14 14 14 14 14 14 14 14 14 15 15 14 14 14 14 14 14 14 14 14 14 14 14 15 15 15 14 14 14 14 14 14 14 14 14 14 14
14 13 13 13 14 14 14 14 14 14 14 14 14 14 14 14 14 14 14 14 14 14 14 14 14 14 14 14 14 14 14 14 14 14 14 14 14 14 14 14 14 14 14
13 13 13 13 14 14 14 14 14 14 14 14 14 14 14 14 14 14 14 14 14 14 14 14 14 14 14 14 14 14 14 14 14 14 13 13 13 14 14 14 14 14 14
13 13 13 13 13 13 13 13 13 13 13 14 14 14 14 14 14 14 14 14 14 14 14 14 14 14 14 14 14 14 14 14 14 13 13 13 13 13 13 13 14 13 14
13 13 13 13 13 13 13 13 13 13 13 13 13 13 14 14 13 13 13 13 14 14 13 13 13 14 14 14 14 14 14 14 13 13 13 13 13 13 13 13 13 13 13
13 13 13 13 13 13 13 13 13 13 13 13 13 13 13 13 13 13 13 13 13 13 13 13 13 13 13 13 13 13 13 13 13 13 13 12 13 13 13 13 13 13 13
12 12 12 12 13 13 13 13 13 13 13 13 13 13 13 13 13 13 13 13 13 13 13 13 13 13 13 13 13 13 13 13 13 13 12 12 12 12 12 12 12 12 12
12 12 12 12 12 12 12 13 13 13 13 13 13 13 13 13 13 13 13 13 13 13 13 13 13 13 13 13 13 13 13 13 12 12 12 12 12 12 12 12 12 12 12
12 12 12 12 12 12 12 12 12 12 12 12 12 12 12 12 12 12 12 12 12 12 12 12 12 12 13 13 13 13 12 12 12 12 12 12 12 12 12 12 12 12 12
11 11 11 11 11 12 12 12 12 12 12 12 12 12 12 12 12 12 12 12 12 12 12 12 12 12 12 12 12 12 12 12 12 11 11 11 11 11 11 11 11 11 11
11 11 11 11 11 11 11 11 11 11 11 12 12 12 12 12 11 11 12 12 12 12 12 12 12 12 12 12 12 12 12 11 11 11 11 11 11 11 11 11 11 11 11
11 11 11 11 11 11 11 11 11 11 11 11 11 11 11 11 11 11 11 11 11 11 11 11 11 11 11 11 11 11 11 11 11 11 10 10 11 11 11 11 11 11 11
10 10 11 11 11 11 11 11 11 11 11 11 11 11 11 11 11 11 11 11 11 11 11 11 11 11 11 11 11 11 11 11 10 10 10 10 10 10 10 10 10 10 10
10 10 10 10 10 10 10 10 10 10 10 10 10 10 10 10 10 10 10 10 10 10 10 10 10 10 10 10 10 10 10 10 10 10 10 10 10 10 10 10 10 10 10
9 10 10 10 10 10 10 10 10 10 10 10 10 10 10 10 10 10 10 10 10 10 10 10 10 10 10 10 10 10 10 10 10 10 10 10 10 10 10 10 10 10 10
9 9 9 10 10 9 9 9 9 9 9 9 9 9 9 10 10 10 10 9 10 10 9 10 10 10 9 9 9 9 9 9 9 9 9 9 9 9 9 9 9 9 9
9 9 9 9 9 9 9 9 9 9 9 9 9 9 9 9 9 9 9 9 9 9 9 9 9 9 9 9 9 9 9 9 9 9 9 9 9 9 9 9 9 9 9
8 8 8 9 8 8 8 8 8 8 8 8 8 8 8 8 8 9 9 9 9 9 9 9 9 8 9 8 8 8 8 8 8 8 8 8 8 8 8 8 8 8 8
8 8 8 8 8 8 8 8 8 8 8 8 8 8 8 8 8 8 8 8 8 8 8 8 8 8 8 8 8 8 8 8 8 8 8 8 8 8 8 8 8 8 8
7 7 7 7 7 7 7 7 7 7 7 7 7 7 7 7 7 8 8 8 8 8 8 8 8 7 7 7 7 7 7 7 7 7 7 7 7 7 7 7 7 7 7
7 7 7 7 7 7 7 7 7 7 7 7 7 7 7 7 7 7 7 7 7 7 7 7 7 7 7 7 6 6 6 6 6 7 7 7 7 7 7 7 7 7 7
6 6 6 6 6 6 6 6 6 6 6 6 6 6 6 6 6 7 6 6 6 7 7 7 7 7 7 6 6 6 5 6 5 6 6 6 6 6 6 7 7 7 6
6 5 5 5 5 6 6 5 5 5 6 6 6 6 6 6 6 6 6 6 6 6 6 6 6 6 6 6 6 6 6 6 5 5 5 6 6 6 6 6 6 6 6
5 5 5 5 5 5 5 5 5 5 5 5 5 5 5 5 5 5 5 5 5 5 5 5 6 6 6 6 5 5 5 5 5 5 5 5 5 6 6 6 6 6 6
4 4 4 4 4 4 4 4 5 5 4 4 4 4 4 4 4 5 5 5 5 5 5 5 5 5 5 5 5 5 5 5 5 5 5 5 5 5 5 5 5 5 5
Wind_Speed
3 3 3 4 6 8 8 8 9 10 10 10 10 10 10 10 11 11 11 11 10 12 13 14 15 16 16 17 17 18 18 18 18 19 19 19 19 19 19 17 18 19 20
4 5 5 5 7 8 8 9 10 10 10 10 10 10 10 10 11 11 12 11 11 12 14 15 15 16 17 17 18 18 18 18 18 17 17 18 18 18 18 18 18 18 20
5 6 6 6 7 9 9 9 10 11 11 10 10 10 10 10 11 11 12 12 13 14 14 15 15 16 16 17 17 17 17 17 16 14 14 15 16 17 18 18 19 19 19
5 6 6 7 8 9 9 9 10 10 10 10 10 10 10 11 11 11 12 12 13 14 14 15 15 16 16 16 16 16 16 16 14 12 12 13 14 16 17 18 18 18 18
5 5 6 7 8 9 9 10 10 10 10 10 10 10 10 11 11 11 12 13 13 13 14 14 15 15 16 16 16 16 15 14 13 12 13 13 14 16 17 17 17 17 17
5 5 6 7 7 9 10 10 9 9 10 9 9 9 10 11 11 11 12 12 12 13 13 14 14 15 15 15 15 15 14 12 12 12 12 13 13 15 16 16 16 16 17
5 5 6 6 7 9 9 9 9 9 9 9 9 9 10 11 11 11 12 12 12 12 12 13 13 14 15 15 14 14 13 11 11 11 12 12 13 15 15 15 15 16 16
4 4 5 6 6 8 9 9 9 9 9 9 9 9 10 10 11 11 11 12 11 11 12 12 12 13 14 14 14 13 12 10 11 11 11 12 13 14 14 15 15 15 15
4 4 4 5 5 6 8 9 9 9 9 9 9 9 10 10 11 11 11 11 11 11 12 12 11 12 13 13 13 12 11 10 10 10 10 11 13 13 13 14 14 15 15
3 3 3 3 3 4 6 8 8 9 9 9 9 10 10 11 11 11 10 11 11 11 11 12 11 12 12 12 12 11 10 9 9 9 9 10 12 12 13 13 14 14 14
2 2 2 2 2 3 5 6 7 8 8 8 9 10 10 9 9 9 10 10 11 11 11 11 11 11 12 11 11 9 7 7 8 8 8 10 11 12 12 12 13 13 13
2 1 1 1 2 2 4 5 6 6 7 7 7 8 8 7 7 8 10 10 11 10 10 10 10 9 8 8 8 7 6 7 7 7 8 10 10 11 11 12 12 12 12
3 2 1 1 1 2 2 3 4 5 5 6 6 7 7 7 7 7 7 8 8 8 8 8 7 6 6 6 6 6 6 6 6 7 8 9 9 10 10 11 11 12 11
3 2 2 2 2 2 2 3 3 3 4 4 6 6 6 5 5 5 5 5 5 5 5 5 5 6 6 6 6 6 6 5 6 6 7 8 8 9 9 10 11 10 10
3 2 2 2 2 2 2 3 2 3 3 4 5 6 6 5 5 5 5 5 4 5 5 5 5 5 5 5 5 6 6 6 6 6 6 7 7 8 8 9 9 9 9
3 3 2 2 2 2 2 3 3 3 3 4 4 5 6 6 6 5 4 4 4 4 4 5 5 5 4 5 5 5 5 5 5 5 5 6 7 7 7 7 8 7 8
4 3 2 2 2 2 3 3 3 4 4 4 5 5 5 5 6 6 5 4 4 4 5 5 5 5 4 4 4 4 4 5 4 4 4 4 5 6 7 6 6 6 6
4 3 3 1 2 3 3 3 3 4 4 4 5 5 5 4 5 5 5 4 5 5 5 4 4 4 4 3 3 3 3 3 4 4 4 4 4 4 5 5 5 4 4
4 4 3 3 3 3 3 3 3 3 3 4 4 4 4 5 4 4 4 5 6 5 4 4 4 4 4 3 3 3 3 2 3 3 3 3 3 3 3 3 4 4 3
4 4 4 3 3 3 3 3 3 3 3 3 3 4 5 5 5 4 4 5 6 4 4 4 4 3 3 3 3 2 2 2 2 2 2 2 2 2 2 2 3 3 3
3 3 3 3 3 3 4 4 4 4 3 3 3 4 5 5 5 4 3 5 5 4 4 5 4 5 3 3 3 2 1 1 1 1 1 2 2 2 2 2 2 2 3
3 4 3 4 4 4 4 4 4 4 4 4 3 4 4 5 5 5 4 4 4 4 5 5 5 4 3 3 3 3 2 3 2 2 2 2 2 2 2 2 2 2 2
4 5 4 5 5 5 5 4 3 3 3 3 4 3 4 5 5 6 5 5 4 5 5 5 6 6 5 4 3 3 4 4 2 3 3 3 3 2 3 2 2 2 2
5 5 5 5 5 5 5 5 6 5 4 4 4 4 4 5 5 5 5 5 5 4 5 5 5 5 7 6 4 3 2 2 3 3 3 4 4 4 4 3 3 4 3
5 5 4 4 4 4 5 6 7 6 4 3 4 5 5 4 5 5 5 5 5 4 5 5 5 5 6 6 5 3 2 2 3 4 4 4 4 4 5 5 5 5 5
4 4 4 4 4 3 5 6 7 7 6 5 5 5 5 4 4 5 6 5 5 5 5 6 6 6 5 6 5 5 4 3 4 4 4 5 5 5 5 5 6 6 6
Wind_Direction
159 155 140 133 127 121 114 107 109 108 102 98 95 91 88 84 80 76 78 83 85 92 98 100 97 96 94 91 90 90 88 87 86 86 85 85 86 86 84 83 86 84 83
159 158 145 138 131 127 119 112 112 111 106 101 98 95 90 87 83 79 77 76 84 93 99 98 96 96 94 92 91 91 91 89 89 89 90 89 86 86 84 79 80 86 84
147 152 150 136 133 131 122 116 114 110 107 102 100 96 92 89 86 83 81 78 81 92 97 97 96 95 93 93 92 91 92 92 90 92 96 95 91 88 87 86 86 88 86
146 150 147 135 134 134 128 122 117 114 111 106 102 98 94 91 88 85 84 82 83 87 94 95 97 97 96 95 94 92 91 90 90 94 94 94 94 91 91 90 90 89 89
143 145 133 133 134 136 131 126 122 117 114 110 105 101 98 94 89 87 86 85 85 87 91 95 96 99 100 98 96 93 90 89 90 93 91 92 93 93 93 93 92 91 91
144 142 130 129 134 138 133 130 126 122 118 114 111 107 103 99 94 89 88 89 89 92 93 98 100 102 102 102 99 97 94 93 97 93 92 92 94 95 95 94 94 93 92
142 136 131 132 136 138 136 134 131 126 122 120 118 114 108 103 99 94 92 94 95 96 98 98 104 105 105 103 101 99 94 91 94 93 93 93 93 95 96 95 94 94 93
127 121 123 125 127 141 143 140 137 132 127 123 119 116 112 109 105 100 97 96 98 100 101 99 103 109 108 104 100 97 93 94 95 93 94 94 93 95 97 96 95 95 93
114 108 106 128 135 135 145 142 138 137 132 127 123 118 112 109 108 105 103 100 99 99 99 98 100 109 110 106 102 96 90 88 96 95 95 94 95 98 98 98 96 95 94
103 101 99 122 139 146 145 138 139 139 137 132 128 123 117 113 112 108 107 103 100 98 98 99 99 111 110 107 103 99 98 100 97 95 95 98 99 100 98 98 96 95 94
96 90 88 103 124 144 143 140 138 140 138 138 134 127 126 124 118 114 106 103 100 98 97 99 98 107 110 107 104 105 107 104 102 96 96 99 105 105 103 102 99 97 96
159 149 124 134 130 135 142 146 151 151 149 147 143 139 134 127 120 117 107 103 101 99 97 96 98 106 118 119 113 111 107 104 102 101 100 98 105 107 106 105 104 102 100
188 186 202 185 160 141 142 150 160 161 155 153 146 140 132 124 123 121 116 110 106 102 98 100 103 96 110 115 118 114 109 105 102 104 103 99 104 110 110 108 107 105 103
199 199 205 202 181 164 152 153 159 154 154 147 149 142 137 130 130 131 125 122 115 110 107 102 101 102 101 112 115 113 113 110 109 108 100 95 101 107 112 113 111 109 106
215 216 222 213 192 177 160 146 149 154 159 151 149 149 145 140 139 136 129 130 123 120 118 114 110 109 105 110 114 114 110 110 112 113 107 95 101 105 112 114 115 113 110
230 237 234 209 198 181 173 165 159 155 155 151 152 155 156 152 147 143 138 134 130 131 130 127 122 117 111 112 114 111 113 113 111 115 117 109 101 105 106 111 118 118 115
231 238 242 223 197 191 186 182 171 167 165 156 157 154 153 159 156 151 149 144 141 140 136 131 125 118 116 113 117 114 113 111 112 111 111 115 114 106 101 105 113 118 121
229 234 233 239 215 198 188 182 174 170 162 149 156 158 149 149 161 159 157 152 151 149 147 142 138 133 131 127 124 121 117 115 116 115 108 106 109 113 110 103 112 112 118
227 227 223 217 224 203 185 171 161 159 150 145 145 144 155 152 156 165 162 155 156 155 154 149 147 147 145 138 127 122 119 119 123 120 115 108 104 105 118 112 121 119 113
230 224 217 214 224 208 181 168 157 156 156 154 153 151 156 157 160 162 158 158 158 158 157 157 152 144 149 145 127 112 109 117 120 126 135 122 111 108 113 123 133 135 126
234 228 216 215 220 202 186 185 182 189 184 177 164 160 160 158 161 161 158 159 162 162 164 162 153 148 151 153 145 131 120 135 146 149 160 151 142 138 123 124 135 150 158
230 228 220 219 221 209 200 195 194 192 188 181 170 164 164 163 165 169 165 169 172 162 163 167 164 164 166 184 178 167 177 191 191 212 202 196 185 166 158 158 168 179 182
231 229 223 223 218 210 198 185 174 171 171 180 186 182 180 175 174 174 174 173 183 177 174 180 181 181 181 189 196 199 195 202 185 200 213 217 213 203 201 194 197 197 207
231 227 226 219 208 209 193 189 185 191 200 199 188 186 184 184 180 181 177 183 186 184 185 188 192 192 185 190 200 230 247 190 187 190 205 214 221 223 217 213 218 216 220
227 223 218 214 202 204 200 195 194 200 202 187 182 182 187 190 187 186 182 185 195 196 191 197 198 196 195 196 198 199 201 213 217 200 207 209 221 226 223 221 222 220 219
221 218 214 210 206 204 207 199 202 202 196 189 189 189 192 193 197 195 192 195 199 203 203 203 202 202 203 203 203 201 200 207 206 207 213 216 223 223 224 221 220 219 217
Height
1540 1541 1542 1543 1544 1545 1545 1545 1545 1546 1546 1546 1546 1546 1546 1546 1545 1544 1543 1542 1539 1538 1539 1541 1543 1544 1545 1545 1545 1546 1546 1546 1547 1547 1547 1548 1548 1548 1548 1549 1549 1549 1549
1539 1540 1541 1543 1544 1545 1545 1546 1546 1546 1546 1547 1547 1547 1547 1546 1546 1545 1544 1542 1540 1539 1540 1542 1544 1545 1546 1547 1547 1548 1548 1548 1549 1549 1549 1550 1551 1551 1551 1551 1551 1551 1551
1539 1540 1541 1543 1544 1545 1546 1546 1546 1547 1547 1547 1547 1547 1547 1547 1547 1546 1545 1544 1542 1542 1543 1545 1546 1546 1547 1548 1548 1549 1550 1550 1551 1551 1552 1553 1553 1553 1553 1553 1553 1554 1554
1539 1540 1542 1543 1544 1545 1546 1546 1547 1547 1547 1548 1548 1548 1548 1548 1547 1547 1546 1546 1545 1545 1546 1547 1547 1548 1549 1549 1550 1551 1551 1552 1553 1553 1554 1555 1555 1555 1555 1556 1556 1556 1556
1539 1540 1541 1542 1544 1545 1545 1546 1547 1547 1548 1548 1548 1548 1548 1548 1548 1548 1548 1548 1547 1547 1548 1548 1549 1550 1550 1551 1552 1552 1553 1554 1554 1555 1556 1556 1557 1557 1557 1557 1558 1558 1558
1539 1540 1541 1542 1543 1544 1545 1546 1547 1547 1548 1548 1549 1549 1549 1549 1549 1549 1549 1549 1549 1549 1549 1550 1550 1551 1552 1552 1553 1554 1555 1555 1556 1557 1557 1558 1559 1559 1559 1559 1559 1560 1560
1538 1540 1541 1542 1543 1544 1545 1546 1547 1547 1548 1548 1549 1549 1549 1549 1549 1550 1550 1550 1550 1550 1550 1551 1551 1552 1553 1553 1554 1555 1556 1557 1558 1558 1559 1560 1560 1561 1561 1561 1561 1561 1561
1538 1539 1540 1541 1542 1544 1544 1545 1546 1547 1547 1548 1549 1549 1549 1550 1550 1550 1550 1550 1551 1551 1551 1552 1552 1553 1554 1554 1555 1556 1557 1558 1559 1559 1560 1561 1561 1562 1562 1562 1562 1563 1563
1537 1539 1540 1540 1542 1543 1544 1545 1546 1546 1547 1548 1548 1549 1549 1550 1550 1551 1551 1551 1551 1552 1552 1552 1553 1553 1554 1555 1556 1557 1558 1559 1560 1560 1561 1562 1562 1563 1563 1564 1564 1564 1564
1537 1538 1539 1540 1541 1542 1543 1544 1545 1545 1546 1547 1548 1549 1549 1550 1550 1551 1551 1551 1551 1552 1552 1552 1553 1553 1554 1555 1556 1558 1559 1560 1560 1561 1562 1563 1563 1564 1564 1564 1565 1565 1565
1535 1536 1537 1538 1540 1541 1542 1543 1544 1545 1546 1547 1548 1548 1549 1549 1550 1550 1551 1551 1552 1552 1552 1553 1553 1554 1554 1555 1557 1558 1559 1560 1561 1561 1562 1563 1564 1565 1565 1565 1565 1566 1566
1533 1535 1536 1537 1538 1539 1540 1541 1542 1544 1545 1546 1546 1547 1548 1548 1549 1549 1550 1551 1551 1552 1552 1553 1553 1554 1554 1555 1557 1558 1559 1560 1561 1562 1563 1563 1564 1565 1565 1565 1566 1566 1567
1532 1533 1534 1535 1536 1537 1538 1539 1541 1542 1543 1544 1545 1545 1546 1546 1547 1548 1549 1550 1550 1551 1551 1552 1553 1553 1554 1555 1556 1557 1559 1560 1561 1562 1563 1564 1564 1565 1565 1565 1566 1566 1567
1530 1531 1532 1533 1534 1535 1536 1537 1538 1539 1540 1541 1542 1543 1544 1545 1546 1547 1547 1548 1549 1550 1551 1551 1552 1553 1554 1555 1556 1557 1558 1559 1560 1561 1562 1563 1564 1565 1565 1565 1566 1566 1567
1528 1529 1530 1531 1532 1533 1534 1535 1536 1537 1538 1539 1540 1541 1542 1543 1544 1545 1546 1547 1548 1549 1550 1551 1552 1552 1553 1554 1555 1556 1557 1558 1560 1561 1562 1563 1564 1565 1565 1565 1566 1566 1567
1526 1527 1527 1528 1529 1530 1531 1532 1533 1534 1535 1537 1538 1539 1540 1541 1542 1543 1544 1545 1546 1547 1548 1549 1550 1551 1552 1553 1554 1555 1556 1557 1559 1560 1561 1562 1563 1564 1565 1565 1566 1566 1566
1523 1524 1524 1525 1526 1527 1528 1529 1530 1532 1533 1534 1535 1536 1537 1539 1540 1541 1542 1543 1544 1545 1546 1547 1548 1550 1551 1552 1553 1554 1555 1556 1557 1559 1560 1561 1562 1563 1564 1564 1565 1566 1566
1519 1520 1521 1522 1523 1524 1525 1526 1528 1529 1530 1532 1533 1533 1534 1536 1537 1538 1540 1541 1542 1543 1544 1545 1546 1548 1549 1550 1551 1552 1553 1555 1556 1557 1558 1559 1561 1562 1563 1563 1564 1565 1565
1516 1517 1517 1518 1519 1520 1522 1523 1525 1526 1527 1529 1530 1531 1532 1533 1534 1536 1537 1538 1540 1541 1542 1543 1544 1546 1547 1548 1549 1551 1552 1553 1555 1556 1557 1558 1559 1560 1561 1562 1563 1563 1564
1513 1513 1514 1515 1516 1517 1519 1520 1521 1523 1524 1525 1526 1528 1529 1530 1531 1533 1534 1535 1537 1538 1539 1541 1542 1544 1545 1546 1548 1549 1550 1551 1553 1554 1555 1556 1557 1558 1559 1560 1561 1561 1562
1509 1509 1510 1511 1512 1513 1514 1516 1517 1518 1520 1522 1523 1524 1525 1527 1528 1529 1530 1532 1533 1535 1536 1538 1539 1541 1542 1544 1545 1547 1548 1549 1550 1551 1553 1554 1555 1556 1557 1558 1558 1559 1560
1505 1505 1506 1507 1508 1509 1511 1512 1514 1516 1517 1518 1519 1521 1522 1523 1525 1526 1527 1528 1530 1532 1533 1534 1536 1537 1539 1541 1543 1544 1546 1548 1547 1549 1550 1551 1552 1553 1554 1555 1556 1557 1557
1500 1501 1502 1504 1505 1506 1507 1509 1511 1513 1514 1515 1516 1517 1518 1520 1521 1523 1524 1525 1527 1528 1529 1531 1533 1534 1535 1538 1540 1541 1543 1543 1544 1546 1547 1548 1549 1550 1551 1552 1553 1554 1555
1497 1498 1499 1500 1501 1502 1503 1505 1506 1507 1508 1510 1512 1513 1515 1516 1517 1519 1520 1522 1523 1525 1526 1527 1529 1530 1532 1533 1535 1537 1539 1539 1541 1542 1544 1544 1545 1546 1547 1548 1550 1550 1551
1494 1495 1496 1497 1498 1499 1500 1501 1503 1504 1506 1507 1509 1510 1511 1513 1514 1515 1516 1518 1520 1521 1523 1524 1525 1526 1528 1529 1531 1532 1534 1535 1536 1537 1538 1540 1541 1542 1543 1544 1545 1546 1547
1491 1492 1492 1494 1494 1495 1496 1498 1499 1500 1502 1503 1504 1505 1507 1508 1510 1511 1512 1514 1515 1517 1519 1520 1521 1522 1524 1525 1527 1528 1529 1531 1532 1533 1534 1535 1536 1538 1539 1540 1541 1542 1543